CW3442 Weather Reports


time (UTC)temp
C
wind
direction
speed
KPH
gust
KPH
rain 1hr
cm
rain 24hr
cm
rain mn
cm
humidity
%
barometer
mb
20260507060349 6 179 0.0 0.0 0.00 0.00 0.00 88 786.7
20260507053351 6 171 0.0 0.0 0.00 0.00 0.00 88 786.8
20260507050336 6 191 0.0 0.0 0.00 0.00 0.00 88 786.9
20260507043325 6 191 0.0 0.0 0.00 0.00 0.00 87 786.9
20260507040350 6 191 0.0 0.0 0.00 0.00 0.00 86 787.0
20260507033351 6 191 0.0 0.0 0.00 0.00 0.00 86 787.0
20260507030321 6 191 0.0 0.0 0.00 0.00 0.00 85 787.0
20260507023324 7 191 0.0 0.0 0.00 0.00 0.00 83 787.1
20260507020337 7 211 0.0 0.0 0.00 0.00 0.00 82 787.1
20260507013409 7 185 0.0 0.0 0.00 0.00 0.00 82 787.1
20260507010338 8 192 0.0 0.0 0.00 0.00 0.00 81 787.1
20260507003349 8 195 0.0 0.0 0.00 0.00 0.00 79 787.0
20260507000350 8 211 0.0 0.0 0.00 0.00 0.00 77 786.9
20260506233329 8 201 0.0 0.0 0.00 0.00 0.00 77 786.9
20260506230339 8 225 0.0 0.0 0.00 0.00 0.00 77 786.9
20260506223330 8 228 0.0 0.0 0.00 0.00 0.00 76 787.0
20260506220338 8 163 0.0 0.0 0.00 0.00 0.00 75 787.0
20260506213340 8 198 0.0 0.0 0.00 0.00 0.00 77 786.9
20260506210327 8 176 0.0 0.0 0.00 0.00 0.00 78 787.0
20260506203327 8 182 0.0 0.0 0.00 0.00 0.00 80 787.0
20260506200334 8 112 0.0 0.0 0.00 0.00 0.00 80 787.0
20260506193326 8 169 0.0 0.0 0.00 0.00 0.00 81 787.1
20260506190333 7 140 0.0 0.0 0.00 0.00 0.00 82 787.1
20260506183348 7 127 0.0 0.0 0.00 0.00 0.00 83 787.1
20260506180326 7 138 0.0 0.0 0.00 0.00 0.00 85 787.2
20260506173344 7 103 0.0 0.0 0.00 0.00 0.00 88 787.2
20260506170337 6 217 0.0 0.0 0.00 0.00 0.00 91 787.3
20260506163335 6 109 0.0 0.0 0.00 0.00 0.00 92 787.3
20260506160329 6 197 0.0 0.0 0.00 0.00 0.00 92 787.4
20260506153349 6 182 0.0 0.0 0.00 0.00 0.00 92 787.4
20260506150325 6 142 0.0 0.0 0.00 0.00 0.00 92 787.5
20260506143348 6 126 0.0 0.0 0.00 0.00 0.00 91 787.3
20260506133334 6 100 0.0 0.0 0.00 0.00 0.00 90 787.3
20260506130323 6 88 0.0 0.0 0.00 0.00 0.00 90 787.4
20260506123344 6 198 0.0 0.0 0.00 0.00 0.00 90 787.3
20260506120321 6 207 0.0 0.0 0.00 0.00 0.00 89 787.3
20260506113325 6 132 0.0 0.0 0.00 0.00 0.00 88 787.3
20260506110332 7 213 0.0 0.0 0.00 0.00 0.00 85 787.4
20260506103347 7 128 0.0 0.0 0.00 0.00 0.00 83 787.2
20260506100332 8 103 0.0 0.0 0.00 0.00 0.00 82 787.2
20260506093335 8 184 0.0 0.0 0.00 0.00 0.00 83 787.2
20260506090325 8 90 0.0 0.0 0.00 0.00 0.00 81 787.1
20260506083326 9 184 0.0 0.0 0.00 0.00 0.00 81 787.2
20260506080340 9 198 0.0 0.0 0.00 0.00 0.00 81 787.2
20260506073336 9 207 0.0 0.0 0.00 0.00 0.00 81 787.1
20260506070324 10 213 0.0 0.0 0.00 0.00 0.00 80 787.1